Location: Unspecified
(0.0000°N, 0.0000°E)
Time: 07:29:13
(UTC+00:00)

Vanguard 2 Rocket - Pass Details

Date: 05 October 2023
Orbit: 552 x 3312 km, 32.9° (Epoch: 06 December)

Event Time Altitude Azimuth Distance (km) Brightness Sun altitude
Rises 06:33:27 0° 257° (WSW) 3,669 9.4 11.2°
Reaches altitude 10° 06:35:46 10° 265° (W) 2,976 9.0 11.8°
Maximum altitude 06:42:49 41° 334° (NNW) 2,146 8.7 13.5°
Drops below altitude 10° 06:54:50 10° 39° (NE) 5,009 11.3 16.5°
Sets 07:00:06 0° 46° (NE) 6,451 11.9 17.8°
